Regional Weather Roundup
Issued by NWS Sterling, VA

Home | Current Version | Previous Version | Text Only | Print | Product List | Glossary Off
Versions: 1 2 3 4 5 6 7 8 9 10 11 12 13 14 15 16 17 18 19 20 21 22 23 24 25 26 27 28 29 30 31 32 33 34 35 36 37 38 39 40 41 42 43 44 45 46 47 48 49 50

000
ASUS41 KLWX 261011
RWRLWX

REGIONAL WEATHER ROUNDUP
NATIONAL WEATHER SERVICE BALTIMORE MD/WASHINGTON DC
600 AM EDT SAT MAY 26 2018

Note: "FAIR" indicates few or no clouds below 12,000 feet
with no significant weather and/or obstructions to visibility.
 TC=TEMPERATURE CELSIUS

 * =Non NWS site. Station does not report precipitation (e.g. rain,
    snow, etc.), thunder, or fog.

DCZ001-MDZ009-015-VAZ040>042-051-053>054-261100-
WASHINGTON METRO

CITY           SKY/WX    TMP DP  RH WIND       PRES   REMARKS
WASHINGTON NAT FAIR      72  67  84 S8        29.87S
DULLES         MOCLDY    71  68  90 S7        29.87S
ANDREWS AFB    FAIR      71  65  83 SW8       29.87S
FT BELVOIR     FAIR      68  66  93 CALM      29.87F
QUANTICO       FAIR      73  68  84 SW5       29.89S
COLLEGE PARK*  FAIR      72  66  80 CALM      29.87R
LEESBURG*      FAIR      72  70  94 CALM      29.88S
MANASSAS*      CLOUDY    69  67  93 CALM      29.88F
GAITHERSBURG*  MOCLDY    72  67  84 SW3       29.89S

$$

MDZ006>007-011-014-261100-
BALTIMORE METRO

CITY           SKY/WX    TMP DP  RH WIND       PRES   REMARKS
BWI AIRPORT    MOCLDY    73  67  81 SW6       29.86R
MD SCIENCE CTR   N/A     76  67  73 MISG      29.86S
MARTIN STATE   MOCLDY    73  72  94 CALM      29.87S
ANNAPOLIS      FAIR     N/A N/A N/A SW6       29.86R
FORT MEADE*    FAIR      68  64  88 SW5       29.89S

$$

MDZ012-015-019>023-261100-
MARYLAND EASTERN SHORE

CITY           SKY/WX    TMP DP  RH WIND       PRES   REMARKS
OCEAN CITY     FAIR      71  70  96 SW10      29.90S
SALISBURY      FAIR      72  69  90 SW9       29.90S
BAY BRIDGE AP* FAIR      73  66  78 CALM      29.87R
CAMBRIDGE*     CLEAR     73  68  83 S8        29.89R
EASTON*        PTCLDY    75  68  78 SW6       29.91S

$$

MDZ017>025-261100-
SOUTHERN MARYLAND

CITY           SKY/WX    TMP DP  RH WIND       PRES   REMARKS
PATUXENT RIVER FAIR      75  68  78 SW13      29.88S
ST INIGOES     FAIR      73  69  87 SW7       29.90S
LEONARDTOWN*   FAIR      70  66  88 S5        29.91S

$$

MDZ003>005-261100-
NORTH CENTRAL MARYLAND

CITY           SKY/WX    TMP DP  RH WIND       PRES   REMARKS
FREDERICK*     MOCLDY    72  72 100 CALM      29.89R
HAGERSTOWN APT MOCLDY    73  67  81 S5        29.88R
WESTMINSTER*   MOCLDY    73  68  83 SW6       29.88R

$$

MDZ501>502-261100-
WESTERN MARYLAND

CITY           SKY/WX    TMP DP  RH WIND       PRES   REMARKS
OAKLAND*       FAIR      63  61  94 W7        29.98S
CUMBERLAND*    FAIR      64  64 100 NE3       29.93S

$$

VAZ025>031-261100-
SHENANDOAH VALLEY

CITY           SKY/WX    TMP DP  RH WIND       PRES   REMARKS
WINCHESTER*    FAIR      70  64  83 SW3       29.90R
FRONT ROYAL*   MOCLDY    70  64  83 S3        29.88S
LURAY*         CLOUDY    70  64  83 SW6       29.91S
NEW MARKET*    CLOUDY    66  65  97 SW5       29.90S
STAUNTON*      FAIR      67  63  87 S3        29.95S
WAYNESBORO*    MOCLDY    68  64  84 CALM      29.95S

$$

WVZ021-048>050-054>055-261100-
EASTERN WEST VIRGINIA PANHANDLE

CITY           SKY/WX    TMP DP  RH WIND       PRES   REMARKS
MARTINSBURG    FAIR      70  66  87 S5        29.87R
PETERSBURG*    FOG       63  63 100 CALM      29.92R VSB 1/4

$$

VAZ036>039-050-261100-
CENTRAL FOOTHILLS

CITY           SKY/WX    TMP DP  RH WIND       PRES   REMARKS
CHARLOTTESVILL FAIR      70  67  90 S7        29.90S
CULPEPER*      MOCLDY    71  67  87 CALM      29.89S
ORANGE*        CLOUDY    68  64  88 SW8       29.90R
GORDONSVILLE*  FAIR      67  67 100 CALM      29.91R
WARRENTON*     MOCLDY    71  65  80 SW3       29.88S

$$

VAZ055>057-261100-
NORTH AND CENTRAL PIEDMONT

CITY           SKY/WX    TMP DP  RH WIND       PRES   REMARKS
FREDERICKSBRG* CLOUDY    71  67  87 SW3       29.89R
STAFFORD*      FAIR      70  70  98 CALM      29.92S

$$

NCZ024-NYZ072-PAZ021-071-VAZ022-071-261100-
OTHER REGIONAL OBSERVATIONS

CITY           SKY/WX    TMP DP  RH WIND       PRES   REMARKS
NEW YORK CITY  FAIR      73  64  73 VRB3      29.85R
PHILADELPHIA   FAIR      69  65  86 S6        29.85S
PITTSBURGH     FAIR      67  63  87 CALM      29.87S
ROANOKE        MOCLDY    70  63  78 CALM      29.97S
RICHMOND       MOCLDY    69  67  93 S10       29.93S
RALEIGH        FAIR      68  68 100 SW6       29.98S

$$

ANZ530>537-261100-
MARINE OBSERVATIONS

STATION/POSITION TIME  TEMP    WIND        PRES
                       AIR SEA DIR/SP/G
                 (UTC) (F)     (DEG/KT/KT) (MB)
THOMAS PT LIGHT  1000   73 70  240/  7/  8 1012.4R
BALT KEY BRIDGE  0942   75     210/  6/  7 1010.8R
COVE POINT       0942   74     240/ 18/ 22 1012.2F
LEWISETTA        0942   73 74  220/ 10/ 12 1012.6F
SOLOMONS ISLAND  0942   72 72  220/ 14/ 18 1011.7S
PINEY POINT      0942          230/  9/ 10   N/A

$$




USA.gov is the U.S. government's official web portal to all federal, state and local government web resources and services.